Regional Weather Roundup
Issued by NWS New Orleans/Baton Rouge, LA

Home | Current Version | Previous Version | Graphics & Text | Print | Product List | Glossary On
Versions: 1 2 3 4 5 6 7 8 9 10 11 12 13 14 15 16 17 18 19 20 21 22 23 24 25 26 27 28 29 30 31 32 33 34 35 36 37 38 39 40 41 42 43 44 45 46 47 48 49 50
593
ASUS44 KLIX 020507
RWRLIX
NEW ORLEANS REGIONAL WEATHER ROUNDUP
NATIONAL WEATHER SERVICE NEW ORLEANS LA
1200 AM CDT THU APR 02 2015

NOTE: "FAIR" INDICATES FEW OR NO CLOUDS BELOW 12,000 FEET WITH NO
      SIGNIFICANT WEATHER AND/OR OBSTRUCTIONS TO VISIBILITY.
      SKY/WX - SKY CONDITION AND SIGNIFICANT WEATHER.
      TMP - AIR TEMPERATURE.     DP    - DEWPOINT TEMPERATURE.
      RH  - RELATIVE HUMIDITY.   PRES  - PRESSURE.
      HI  - HEAT INDEX.          WCI   - WIND CHILL INDEX.

*  THESE STATIONS ARE NOT NWS OR FAA STATIONS AND ARE NOT UNDER
   NWS QUALITY CONTROL.

LAZ038-040-048-061>063-065>067-069-020600-
SOUTHEAST LOUISIANA

CITY           SKY/WX    TMP DP  RH WIND       PRES   REMARKS
N.O. AUDUBON     N/A     73  72  98 MISG        N/A
N.O. INTL ARPT MOCLDY    71  66  84 S6        30.05S
N.O. LAKEFRONT MOCLDY    74  67  78 S7        30.06S
SLIDELL        CLOUDY    72  69  90 SE5       30.05S
BATON ROUGE    PTCLDY    71  66  84 S9        30.04R
BOOTHVILLE     CLOUDY    73  70  90 SE10      30.07F
BELLE CHASSE   MOCLDY    70  67  90 S5        30.05S
BOGALUSA*        N/A     71  66  84 S3        30.08S
GALLIANO*      PTCLDY    68  66  94 CALM      30.06S
NEW ROADS*       N/A     70  65  82 S5        30.03S
GONZALES*        N/A     69  69 100 CALM      30.04S
HAMMOND*       CLOUDY    68  64  88 SE5       30.06S
HOUMA*         CLEAR     71  67  88 S6        30.05S
PORT FOURCHON* CLEAR     73  70  88 SE5       30.09F

$$

MSZ070-080>082-020600-
SOUTHERN MISSISSIPPI

CITY           SKY/WX    TMP DP  RH WIND       PRES   REMARKS
MCCOMB         CLOUDY    68  64  87 S7        30.05S
GULFPORT       CLOUDY    73  69  87 S10       30.07S
BILOXI         MOCLDY    72  71  96 S9        30.07S
PASCAGOULA     MOCLDY    71  69  93 S5        30.08S

$$

COASTAL OBSERVATIONS
LAKE AND NEARSHORE STATIONS

STATION/POSITION TIME  TEMP    WIND        PRES    WAVE
                       AIR SEA DIR/SP/G            HT/PER
                 (UTC) (F)     (DEG/KT/KT) (MB)    (FT/S)
PASCAGOULA       0400   73     170/  8/ 11 1018.2
WAVELAND YACHT   0400   73 74  160/  8/ 10 1018.1
GRAND ISLE       0400   72 71  150/  5/  8 1017.7
SOUTHWEST PASS   0400   70 56  130/ 10/ 12 1018.2
NEW CANAL        0400   74     170/  3/  5 1018.1
SHELL BEACH      0400   72 73  150/  7/  9 1018.0

OFFSHORE STATIONS

STATION/POSITION TIME  TEMP    WIND        PRES    WAVE
                       AIR SEA DIR/SP/G            HT/PER
                 (UTC) (F)     (DEG/KT/KT) (MB)    (FT/S)
64 S DAUPHIN ISL 0450   73 72  180/ 14/ 16 1019.3    3/ 4

$$




USA.gov is the U.S. government's official web portal to all federal, state and local government web resources and services.